Weather History for Andrews AFB, MD

Change the Weather History Date:

Sunday, July 7, 2013

  Actual Average Record
Temperature  
Mean Temperature 80 °F -  
Max Temperature 89 °F 83 °F 102 °F (2012)
Min Temperature 71 °F 63 °F 51 °F (2001)
Cooling Degree Days 15    
Growing Degree Days 30 (Base 50)    
Moisture  
Dew Point 71 °F    
Average Humidity 74    
Maximum Humidity 88    
Minimum Humidity 57    
Precipitation  
Precipitation 0.04 in - - ()
Sea Level Pressure  
Sea Level Pressure 30.08 in    
Wind  
Wind Speed 10 mph (WSW)    
Max Wind Speed 23 mph    
Max Gust Speed 29 mph    
Visibility 9 miles    
Events Rain    
Averages and records for this station are not official NWS values.
T = Trace of Precipitation, MM = Missing Value Source: NWS Daily Summary

Daily Weather History Graph

Daily Weather History Graph

Search for Another Location

Airport:

Trip Planner

Search our weather history database for the weather conditions in past years. The results will help you decide how hot, cold, wet, or windy it might be!

Date:

Astronomy

Jul. 07, 2013 Rise Set
Actual Time 5:49 AM EDT 8:35 PM EDT
Civil Twilight 5:17 AM EDT 9:06 PM EDT
Nautical Twilight 4:38 AM EDT 9:46 PM EDT
Astronomical Twilight 3:53 AM EDT 10:30 PM EDT
Moon 5:23 AM EDT (7/7) 7:58 PM EDT (7/7)
Length of Visible Light 15h 48m
Length of Day
14h 45m
Waning Crescent, 0% of the Moon is Illuminated
Jul 7
Waning Crescent
Jul 8
New
Jul 15
First Quarter
Jul 22
Full
Jul 29
Last Quarter

Hourly Weather History & Observations

Time (EDT) Temp. Heat Index Dew Point Humidity Pressure Visibility Wind Dir Wind Speed Gust Speed Precip Events Conditions
12:58 AM 78.4 °F - 70.2 °F 76% 30.14 in 10.0 mi SSW 10.4 mph - N/A   Clear
1:58 AM 77.2 °F - 70.3 °F 79% 30.12 in 10.0 mi SSW 9.2 mph - N/A   Clear
2:58 AM 75.7 °F - 70.7 °F 84% 30.10 in 10.0 mi SSW 8.1 mph - N/A   Clear
3:58 AM 75.4 °F - 70.7 °F 85% 30.10 in 10.0 mi SW 5.8 mph - N/A   Clear
4:58 AM 74.7 °F - 70.7 °F 87% 30.09 in 10.0 mi SW 5.8 mph - N/A   Clear
5:58 AM 74.7 °F - 70.9 °F 88% 30.11 in 10.0 mi SW 5.8 mph - N/A   Clear
6:58 AM 75.9 °F - 71.2 °F 85% 30.12 in 10.0 mi SW 6.9 mph - N/A   Clear
7:58 AM 79.5 °F - 71.8 °F 77% 30.12 in 10.0 mi West 8.1 mph - N/A   Clear
8:58 AM 82.2 °F 87.1 °F 72.1 °F 71% 30.12 in 10.0 mi SSW 6.9 mph - N/A   Clear
9:58 AM 84.6 °F 90.7 °F 72.5 °F 67% 30.12 in 10.0 mi SSW 6.9 mph - N/A   Clear
10:58 AM 86.0 °F 92.2 °F 72.0 °F 63% 30.12 in 10.0 mi West 10.4 mph - N/A   Clear
11:58 AM 87.6 °F 95.2 °F 73.0 °F 62% 30.12 in 10.0 mi WSW 11.5 mph - N/A   Clear
12:58 PM 89.6 °F 97.2 °F 72.3 °F 57% 30.10 in 10.0 mi SW 11.5 mph - N/A   Clear
1:58 PM 88.5 °F 96.8 °F 73.8 °F 61% 30.07 in 10.0 mi SW 8.1 mph 20.7 mph N/A   Partly Cloudy
2:20 PM 89.6 °F 98.2 °F 73.4 °F 59% 30.05 in 10.0 mi South 13.8 mph - N/A   Scattered Clouds
2:58 PM 89.8 °F 97.5 °F 72.7 °F 57% 30.04 in 10.0 mi SW 18.4 mph 24.2 mph N/A   Scattered Clouds
3:58 PM 89.4 °F 97.8 °F 73.6 °F 59% 30.04 in 10.0 mi South 17.3 mph - N/A   Partly Cloudy
4:58 PM 89.6 °F 98.2 °F 73.4 °F 59% 30.04 in 10.0 mi SSW 16.1 mph - N/A   Clear
5:58 PM 88.7 °F 96.7 °F 73.0 °F 60% 30.04 in 10.0 mi SSW 11.5 mph - N/A   Scattered Clouds
5:59 PM 89.6 °F 98.2 °F 73.4 °F 59% 30.04 in 10.0 mi SSW 16.1 mph - N/A   Scattered Clouds
6:38 PM - - - N/A% 30.03 in 10.0 mi West 17.3 mph - N/A   Partly Cloudy
6:39 PM - - - N/A% 30.03 in 10.0 mi NW 23.0 mph 28.8 mph N/A   Partly Cloudy
6:47 PM 80.6 °F 82.7 °F 66.2 °F 61% 30.04 in 10.0 mi NW 13.8 mph 28.8 mph N/A   Scattered Clouds
6:58 PM 80.6 °F 82.7 °F 66.2 °F 61% 30.06 in 10.0 mi NW 13.8 mph 25.3 mph N/A   Mostly Cloudy
7:01 PM 78.8 °F - 68.0 °F 69% 30.05 in 10.0 mi NW 11.5 mph 25.3 mph N/A   Light Drizzle
7:11 PM 77.0 °F - 69.8 °F 78% 30.06 in 1.8 mi NW 12.7 mph 18.4 mph N/A Rain Light Rain
7:12 PM 75.2 °F - 69.8 °F 83% 30.06 in 1.5 mi WNW 11.5 mph 18.4 mph N/A   Haze
7:13 PM 75.2 °F - 69.8 °F 83% 30.06 in 1.2 mi NW 10.4 mph 18.4 mph N/A Rain Light Rain
7:18 PM 75.2 °F - 69.8 °F 83% 30.05 in 1.8 mi NNW 8.1 mph 18.4 mph N/A Rain Light Rain
7:23 PM 75.2 °F - 69.8 °F 83% 30.05 in 4.0 mi NW 5.8 mph - N/A Rain Light Rain
7:55 PM 75.2 °F - 69.8 °F 83% 30.05 in 10.0 mi WSW 9.2 mph - N/A   Mostly Cloudy
7:58 PM 74.7 °F - 69.1 °F 83% 30.08 in 10.0 mi WSW 9.2 mph - 0.04 in   Mostly Cloudy
8:49 PM 73.4 °F - 69.8 °F 88% 30.07 in 10.0 mi WSW 9.2 mph - N/A   Light Drizzle
8:58 PM 73.6 °F - 69.1 °F 86% 30.08 in 10.0 mi West 8.1 mph - 0.00 in Rain Light Rain
9:55 PM 73.4 °F - 69.8 °F 88% 30.07 in 10.0 mi West 3.5 mph - N/A   Scattered Clouds
10:55 PM 71.6 °F - 68.0 °F 88% 30.07 in 10.0 mi SSW 3.5 mph - N/A   Scattered Clouds
11:55 PM 71.6 °F - 68.0 °F 88% 30.07 in 10.0 mi West 3.5 mph - N/A   Overcast